Location: Blue Mountain Vista Observatory
(40.6992°N, 75.9422°W)
Time: 08:55:51
(UTC-04:00)

Amateur Radio Satellites - All Passes

Search period start: 26 May 2017 08:25
Search period end: 27 May 2017 08:25
Location: Blue Mountain Vista Observatory, 40.6992°N, 75.9422°W

Satellite Date Start Highest point End Downlink Frequencies (MHz)
Time Altitude Azimuth
XW-2F 26 May 08:39:07 08:40:21 11° 296° (WNW) 08:41:35 145.980 - 146.000
NUDT-PHONESAT 26 May 08:39:19 08:41:07 13° 294° (WNW) 08:42:54 437.300
XW-2C 26 May 08:40:03 08:40:58 11° 296° (WNW) 08:41:52 145.795 - 145.815
Oscar 11 26 May 08:46:45 08:48:49 13° 91° (E) 08:50:52 .
KAITUO 1B 26 May 08:47:56 08:48:49 11° 296° (WNW) 08:49:42 145.475/437.950
SO-50 26 May 08:56:02 08:59:33 23° 248° (WSW) 09:03:04 436.795
NO-84 26 May 09:00:12 09:04:31 59° 134° (SE) 09:08:44 435.350 FM
CUTE 1.7 + AOD 2 26 May 09:02:36 09:06:41 44° 287° (WNW) 09:10:42 437.475
UNISAT 6 26 May 09:10:49 09:13:29 16° 64° (ENE) 09:16:11 437.425
AO-73 26 May 09:11:05 09:15:12 32° 97° (E) 09:19:18 145.935
HO-68 26 May 09:12:50 09:19:57 65° 290° (WNW) 09:27:02 435.675
STRAND 1 26 May 09:14:59 09:16:57 12° 271° (W) 09:18:54 437.568
XW-2A 26 May 09:16:27 09:19:21 25° 289° (WNW) 09:22:14 145.665 - 145.685
RS-15 26 May 09:17:56 09:28:17 29° 26° (NNE) 09:38:16 29.354- 29.394
AAUSAT CUBESAT 2 26 May 09:18:28 09:22:38 82° 104° (ESE) 09:26:44 437.432
ZACube-1 26 May 09:24:32 09:28:58 50° 99° (E) 09:33:25 437.345
PRISM 26 May 09:26:28 09:30:05 30° 70° (ENE) 09:33:43 437.425
M-CUBED/EXP-1 PRIME 26 May 09:34:16 09:37:07 17° 260° (W) 09:39:52 437.505
CUBEBUG 2 26 May 09:34:57 09:39:18 44° 287° (WNW) 09:43:44 437.445
DELFI C3 26 May 09:43:25 09:45:27 14° 92° (E) 09:47:28 145.870
UWE-3 26 May 09:46:15 09:50:43 54° 286° (WNW) 09:55:15 435.000/436.395/437.385
FO-29 26 May 09:51:28 09:56:24 47° 70° (ENE) 10:01:28 435.910
SEEDS 26 May 09:53:38 09:56:42 20° 293° (WNW) 09:59:45 437.485
EO-88 26 May 09:54:20 09:55:48 12° 91° (E) 09:57:17 145.990 - 145.960
TIGRISAT 26 May 10:13:54 10:18:08 73° 76° (ENE) 10:22:28 435.000
Oscar 11 26 May 10:21:00 10:25:16 54° 286° (WNW) 10:29:29 .
NO-84 26 May 10:38:39 10:42:23 27° 330° (NNW) 10:45:58 435.350 FM
QB50P2 26 May 10:44:40 10:46:23 12° 63° (ENE) 10:48:06 145.880/145.840
UNISAT 6 26 May 10:45:44 10:49:48 44° 261° (W) 10:53:59 437.425
AO-73 26 May 10:47:35 10:51:15 24° 292° (WNW) 10:54:55 145.935
ZACube-1 26 May 11:01:58 11:04:49 17° 295° (WNW) 11:07:43 437.345
PRISM 26 May 11:02:14 11:05:23 21° 265° (W) 11:08:33 437.425
HO-68 26 May 11:03:25 11:06:18 13° 310° (NW) 11:09:11 435.675
AIST 2D 26 May 11:09:44 11:12:58 35° 73° (ENE) 11:16:14 435.315
DELFI C3 26 May 11:16:43 11:20:25 41° 287° (WNW) 11:24:06 145.870
EO-79 26 May 11:19:54 11:23:24 27° 69° (ENE) 11:26:56 145.935-145.965
EO-88 26 May 11:26:12 11:29:41 41° 287° (WNW) 11:33:09 145.990 - 145.960
RS-15 26 May 11:30:59 11:43:17 75° 55° (NE) 11:54:55 29.354- 29.394
FO-29 26 May 11:38:16 11:41:51 19° 268° (W) 11:45:30 435.910
YUBILEINY 26 May 11:47:10 11:54:59 34° 70° (ENE) 12:02:44 435.215
NANOSAT C BR1 26 May 12:04:37 12:08:46 79° 77° (ENE) 12:12:59 145.865
ESTCUBE 1 26 May 12:08:17 12:12:32 39° 98° (E) 12:16:43 437.505/2401.250
POLYITAN 1 26 May 12:08:47 12:12:58 83° 256° (WSW) 12:17:12 437.675
LO-87 26 May 12:10:29 12:14:04 83° 106° (ESE) 12:17:37 145.935 - 145.965
DUCHIFAT 1 26 May 12:15:32 12:19:41 86° 252° (WSW) 12:23:54 145.980
QB50P2 26 May 12:17:31 12:21:39 60° 259° (W) 12:25:49 145.880/145.840
NO-84 26 May 12:19:39 12:21:08 12° 350° (N) 12:22:35 435.350 FM
BUGSAT 1 26 May 12:35:29 12:39:18 45° 72° (ENE) 12:43:09 437.445
Gurwin Techsat 1B 26 May 12:41:29 12:44:23 15° 60° (ENE) 12:47:19 435.225
AIST 2D 26 May 12:44:44 12:46:19 13° 268° (W) 12:47:55 435.315
AO-85 26 May 12:53:12 12:56:13 20° 47° (NE) 12:59:18 145.980
EO-79 26 May 12:55:41 12:59:06 24° 265° (W) 13:02:34 145.935-145.965
SPROUT 26 May 13:02:26 13:06:26 38° 98° (E) 13:10:26 437.525
Oscar 19 26 May 13:04:14 13:09:00 38° 69° (ENE) 13:13:47 437.125/150
VELOX 1 26 May 13:05:37 13:09:46 40° 98° (E) 13:13:53 145.980
50 SAT 26 May 13:27:02 13:30:09 33° 98° (E) 13:33:15 437.505
UKube-1 26 May 13:35:49 13:39:02 20° 94° (E) 13:42:13 .
O/OREOS (USA 219) 26 May 13:38:39 13:42:43 32° 61° (ENE) 13:46:45 437.305
DX 1 26 May 13:42:18 13:46:17 35° 98° (E) 13:50:14 434.975-435.025
YUBILEINY 26 May 13:43:36 13:52:06 54° 270° (W) 14:00:35 435.215
RS-15 26 May 13:44:44 13:54:34 31° 257° (WSW) 14:04:04 29.354- 29.394
ESTCUBE 1 26 May 13:45:46 13:49:02 20° 294° (WNW) 13:52:18 437.505/2401.250
BEESAT 2 26 May 13:52:15 13:53:37 11° 39° (NE) 13:54:59 435.950
NO-84 26 May 13:58:35 14:00:14 12° 12° (NNE) 14:01:52 435.350 FM
ITAMSAT 1 26 May 14:07:59 14:10:22 13° 59° (ENE) 14:12:46 435.822/435.867
BEESAT 3 26 May 14:11:24 14:15:09 36° 52° (NE) 14:18:50 437.485
BUGSAT 1 26 May 14:13:02 14:14:55 13° 268° (W) 14:16:48 437.445
AO-7 26 May 14:17:55 14:24:50 31° 57° (ENE) 14:31:47 .
Gurwin Techsat 1B 26 May 14:18:23 14:23:41 75° 257° (WSW) 14:29:01 435.225
AO-85 26 May 14:32:53 14:36:44 42° 243° (WSW) 14:40:48 145.980
SPROUT 26 May 14:39:05 14:42:04 18° 294° (WNW) 14:45:00 437.525
VELOX 1 26 May 14:42:53 14:45:55 19° 295° (WNW) 14:48:57 145.980
Oscar 19 26 May 14:44:05 14:48:22 26° 265° (W) 14:52:41 437.125/150
50 SAT 26 May 15:01:05 15:02:42 13° 294° (WNW) 15:04:18 437.505
UKube-1 26 May 15:11:14 15:15:07 34° 290° (WNW) 15:19:00 .
O/OREOS (USA 219) 26 May 15:18:19 15:21:57 24° 258° (WSW) 15:25:33 437.305
DX 1 26 May 15:19:01 15:22:14 21° 294° (WNW) 15:25:26 434.975-435.025
BEESAT 2 26 May 15:27:56 15:32:01 86° 59° (ENE) 15:36:03 435.950
NO-84 26 May 15:35:20 15:38:51 34° 33° (NNE) 15:42:04 435.350 FM
ITUPSAT 1 26 May 15:41:25 15:45:57 40° 98° (E) 15:50:28 437.325
ITAMSAT 1 26 May 15:43:57 15:49:07 81° 256° (WSW) 15:54:20 435.822/435.867
BEESAT 3 26 May 15:49:32 15:52:29 20° 249° (WSW) 15:55:23 437.485
MOZHAYETS 4 26 May 15:59:05 16:03:22 35° 97° (E) 16:07:36
AO-7 26 May 16:08:53 16:17:04 63° 256° (WSW) 16:25:19 .
BEESAT 26 May 16:14:55 16:19:44 90° 103° (ESE) 16:24:32 436.000
CUBESAT XI-V 26 May 16:45:17 16:48:39 19° 93° (E) 16:51:58 437.345
KKS-1 26 May 16:54:13 16:57:22 19° 94° (E) 17:00:29 437.445
NO-84 26 May 17:13:13 17:16:16 26° 233° (SW) 17:19:06 435.350 FM
ITUPSAT 1 26 May 17:19:48 17:23:31 22° 295° (WNW) 17:27:12 437.325
XW-2D 26 May 17:24:02 17:26:21 16° 67° (ENE) 17:28:42 145.860 - 145.880
STARS 26 May 17:25:39 17:28:35 17° 93° (E) 17:31:30 437.465
XW-2B 26 May 17:31:35 17:34:15 18° 68° (ENE) 17:36:56 145.730 - 145.750
MOZHAYETS 4 26 May 17:36:39 17:40:19 23° 293° (WNW) 17:43:57
CUTE-I 26 May 17:38:59 17:43:28 29° 66° (ENE) 17:47:57 437.470
NUDT-PHONESAT 26 May 17:43:33 17:46:14 19° 68° (ENE) 17:48:57 437.300
XW-2F 26 May 17:43:45 17:46:51 24° 70° (ENE) 17:49:59 145.980 - 146.000
XW-2C 26 May 17:44:36 17:47:48 26° 70° (ENE) 17:51:02 145.795 - 145.815
KAITUO 1B 26 May 17:51:29 17:54:34 24° 70° (ENE) 17:57:41 145.475/437.950
BEESAT 26 May 17:55:43 17:56:45 11° 301° (WNW) 17:57:47 436.000
HO-68 26 May 17:56:04 18:00:42 19° 55° (NE) 18:05:19 435.675
DOVE 4 26 May 17:57:13 18:01:52 76° 76° (ENE) 18:06:15 437.250
PCSat 26 May 18:16:28 18:19:07 14° 103° (ESE) 18:21:45 145.827
CUBESAT XI-V 26 May 18:21:48 18:26:10 40° 289° (WNW) 18:30:28 437.345
CUTE 1.7 + AOD 2 26 May 18:21:49 18:23:12 11° 63° (ENE) 18:24:35 437.475
LilacSat-2 26 May 18:21:55 18:25:44 82° 77° (ENE) 18:29:37 437.200
KKS-1 26 May 18:29:55 18:34:02 39° 290° (WNW) 18:38:09 437.445
XW-2D 26 May 18:56:43 19:00:13 36° 262° (W) 19:03:47 145.860 - 145.880
CUBEBUG 2 26 May 18:58:27 19:00:29 13° 64° (ENE) 19:02:33 437.445
STARS 26 May 19:00:57 19:05:05 41° 289° (WNW) 19:09:12 437.465
XW-2B 26 May 19:04:50 19:08:12 30° 263° (W) 19:11:37 145.730 - 145.750
SEEDS 26 May 19:08:51 19:12:15 24° 68° (ENE) 19:15:40 437.485
UWE-3 26 May 19:10:00 19:10:59 11° 62° (ENE) 19:11:58 435.000/436.395/437.385
NUDT-PHONESAT 26 May 19:16:47 19:19:58 27° 264° (W) 19:23:11 437.300
XW-2F 26 May 19:17:55 19:20:55 22° 265° (W) 19:23:56 145.980 - 146.000
CUTE-I 26 May 19:18:30 19:23:21 36° 262° (W) 19:28:14 437.470
XW-2C 26 May 19:19:05 19:21:58 20° 266° (W) 19:24:53 145.795 - 145.815
KAITUO 1B 26 May 19:25:35 19:28:31 21° 265° (W) 19:31:28 145.475/437.950
HO-68 26 May 19:40:16 19:47:27 89° 253° (WSW) 19:54:43 435.675
Oscar 11 26 May 19:42:46 19:43:41 11° 62° (ENE) 19:44:36 .
STRAND 1 26 May 19:43:24 19:47:43 26° 95° (E) 19:51:59 437.568
XW-2A 26 May 19:46:35 19:49:56 87° 263° (W) 19:53:19 145.665 - 145.685
Tancredo 1 26 May 19:48:59 19:51:25 22° 134° (SE) 19:53:52 437.200
CUTE 1.7 + AOD 2 26 May 19:54:11 19:58:26 68° 258° (WSW) 20:02:44 437.475
PCSat 26 May 19:56:22 20:01:47 78° 300° (WNW) 20:07:15 145.827
AO-73 26 May 20:06:39 20:09:58 23° 68° (ENE) 20:13:23 145.935
AAUSAT CUBESAT 2 26 May 20:07:46 20:11:48 49° 74° (ENE) 20:15:52 437.432
ISS 26 May 20:20:00 20:22:54 29° 135° (SE) 20:25:50 437.550
ZACube-1 26 May 20:20:03 20:23:52 35° 71° (ENE) 20:27:49 437.345
CUBEBUG 2 26 May 20:32:35 20:36:37 52° 260° (W) 20:40:47 437.445
UWE-3 26 May 20:42:39 20:46:48 70° 260° (W) 20:51:04 435.000/436.395/437.385
SEEDS 26 May 20:44:05 20:47:47 29° 264° (W) 20:51:32 437.485
M-CUBED/EXP-1 PRIME 26 May 21:12:08 21:14:47 22° 102° (ESE) 21:17:23 437.505
Oscar 11 26 May 21:14:50 21:19:10 76° 259° (W) 21:23:32 .
STRAND 1 26 May 21:22:14 21:26:56 37° 291° (WNW) 21:31:37 437.568
Tancredo 1 26 May 21:24:08 21:27:02 38° 330° (NNW) 21:29:56 437.200
SO-50 26 May 21:31:19 21:33:24 13° 108° (ESE) 21:35:28 436.795
HO-68 26 May 21:32:11 21:36:03 15° 271° (W) 21:39:57 435.675
AO-73 26 May 21:42:23 21:46:03 29° 264° (W) 21:49:50 145.935
PCSat 26 May 21:43:11 21:46:06 14° 320° (NW) 21:49:01 145.827
AAUSAT CUBESAT 2 26 May 21:45:31 21:47:32 13° 269° (W) 21:49:33 437.432
ISS 26 May 21:56:19 21:59:21 34° 332° (NNW) 22:02:24 437.550
ZACube-1 26 May 21:57:17 22:00:17 19° 267° (W) 22:03:20 437.345
DELFI C3 26 May 22:00:59 22:04:59 82° 258° (WSW) 22:09:00 145.870
EO-88 26 May 22:03:01 22:06:39 74° 77° (ENE) 22:10:20 145.990 - 145.960
TIGRISAT 26 May 22:06:26 22:09:22 17° 92° (E) 22:12:19 435.000
UNISAT 6 26 May 22:37:07 22:41:25 37° 97° (E) 22:45:45 437.425
PRISM 26 May 22:42:34 22:46:32 50° 100° (E) 22:50:29 437.425
FO-29 26 May 22:43:19 22:49:38 50° 100° (E) 22:56:41 435.910
LO-87 26 May 22:46:21 22:49:27 29° 72° (ENE) 22:52:34 145.935 - 145.965
M-CUBED/EXP-1 PRIME 26 May 22:46:51 22:49:07 17° 298° (WNW) 22:51:21 437.505
Tancredo 1 26 May 23:01:57 23:03:27 13° 349° (N) 23:04:57 437.200
ESTCUBE 1 26 May 23:07:19 23:11:25 35° 70° (ENE) 23:15:33 437.505/2401.250
SO-50 26 May 23:08:43 23:13:17 68° 304° (WNW) 23:17:50 436.795
ISS 26 May 23:34:51 23:36:36 13° 351° (N) 23:38:20 437.550
TIGRISAT 26 May 23:41:50 23:46:16 49° 287° (WNW) 23:50:45 435.000
NANOSAT C BR1 26 May 23:50:49 23:52:47 13° 91° (E) 23:54:44 145.865
POLYITAN 1 26 May 23:54:53 23:57:36 16° 92° (E) 00:00:18 437.675
SPROUT 26 May 23:55:32 23:59:09 28° 69° (ENE) 00:02:47 437.525
50 SAT 27 May 00:00:19 00:02:01 13° 66° (ENE) 00:03:43 437.505
DUCHIFAT 1 27 May 00:00:57 00:03:27 15° 92° (E) 00:05:56 145.980
VELOX 1 27 May 00:02:24 00:06:24 35° 70° (ENE) 00:10:25 145.980
QB50P2 27 May 00:03:04 00:06:23 22° 94° (E) 00:09:42 145.880/145.840
AIST 2D 27 May 00:07:50 00:11:18 46° 99° (E) 00:14:43 435.315
UNISAT 6 27 May 00:14:20 00:17:53 22° 293° (WNW) 00:21:27 437.425
PRISM 27 May 00:19:24 00:21:23 13° 296° (WNW) 00:23:22 437.425
LO-87 27 May 00:20:46 00:22:57 15° 267° (W) 00:25:08 145.935 - 145.965
FO-29 27 May 00:28:58 00:34:27 31° 294° (WNW) 00:40:28 435.910
UKube-1 27 May 00:30:23 00:33:15 18° 65° (ENE) 00:36:07 .
DX 1 27 May 00:37:29 00:41:15 30° 69° (ENE) 00:45:03 434.975-435.025
Tancredo 1 27 May 00:38:51 00:40:14 12° 10° (N) 00:41:38 437.200
EO-79 27 May 00:39:30 00:43:40 51° 100° (E) 00:47:49 145.935-145.965
ESTCUBE 1 27 May 00:44:46 00:48:17 22° 266° (W) 00:51:48 437.505/2401.250
YUBILEINY 27 May 00:47:58 00:55:43 38° 86° (E) 01:03:33 435.215
SO-50 27 May 00:53:05 00:54:35 11° 324° (NW) 00:56:07 436.795
ISS 27 May 01:12:11 01:14:09 15° 12° (NNE) 01:16:07 437.550
Oscar 19 27 May 01:17:47 01:20:05 13° 90° (E) 01:22:23 437.125/150
NANOSAT C BR1 27 May 01:24:38 01:28:46 52° 287° (WNW) 01:32:54 145.865
POLYITAN 1 27 May 01:29:31 01:33:33 42° 288° (WNW) 01:37:36 437.675
50 SAT 27 May 01:31:23 01:34:34 34° 262° (W) 01:37:45 437.505
SPROUT 27 May 01:31:36 01:35:01 24° 265° (W) 01:38:28 437.525
DUCHIFAT 1 27 May 01:35:17 01:39:19 44° 287° (WNW) 01:43:21 145.980
QB50P2 27 May 01:38:25 01:42:12 31° 290° (WNW) 01:45:58 145.880/145.840
VELOX 1 27 May 01:39:36 01:42:55 21° 266° (W) 01:46:16 145.980
AIST 2D 27 May 01:43:03 01:44:04 11° 295° (WNW) 01:45:04 435.315
BEESAT 27 May 01:46:48 01:48:25 12° 60° (ENE) 01:50:02 436.000
BUGSAT 1 27 May 01:52:07 01:56:16 85° 97° (E) 02:00:28 437.445
RS-15 27 May 01:52:47 02:04:08 50° 109° (ESE) 02:15:44 29.354- 29.394
UKube-1 27 May 02:04:52 02:08:56 42° 261° (W) 02:13:02 .
Tancredo 1 27 May 02:13:50 02:16:42 34° 29° (NNE) 02:19:32 437.200
DX 1 27 May 02:13:55 02:17:25 24° 265° (W) 02:20:57 434.975-435.025
EO-79 27 May 02:16:40 02:18:59 14° 296° (WNW) 02:21:17 145.935-145.965
Gurwin Techsat 1B 27 May 02:34:58 02:40:03 44° 99° (E) 02:45:07 435.225
YUBILEINY 27 May 02:44:02 02:52:18 46° 285° (WNW) 03:00:41 435.215
ITUPSAT 1 27 May 02:47:41 02:52:12 45° 71° (ENE) 02:56:46 437.325
ISS 27 May 02:48:05 02:51:16 46° 31° (NNE) 02:54:26 437.550
Oscar 19 27 May 02:54:46 02:59:56 73° 286° (WNW) 03:05:02 437.125/150
MOZHAYETS 4 27 May 03:00:34 03:04:39 33° 69° (ENE) 03:08:47
PCSat 27 May 03:02:44 03:05:41 14° 40° (NE) 03:08:36 145.827
BEESAT 27 May 03:20:44 03:25:29 82° 257° (WSW) 03:30:17 436.000
CUBESAT XI-V 27 May 03:48:23 03:51:45 20° 65° (ENE) 03:55:07 437.345
Tancredo 1 27 May 03:49:47 03:52:21 24° 226° (SW) 03:54:54 437.200
O/OREOS (USA 219) 27 May 03:50:22 03:54:38 38° 105° (ESE) 03:58:53 437.305
KKS-1 27 May 03:52:19 03:55:17 18° 65° (ENE) 03:58:14 437.445
ITAMSAT 1 27 May 03:57:15 04:02:03 36° 98° (E) 04:06:49 435.822/435.867
RS-15 27 May 04:04:43 04:16:35 55° 313° (NW) 04:28:42 29.354- 29.394
AO-7 27 May 04:10:43 04:18:42 46° 101° (E) 04:26:37 .
Gurwin Techsat 1B 27 May 04:15:32 04:19:42 24° 295° (WNW) 04:23:52 435.225
STARS 27 May 04:22:27 04:25:05 16° 64° (ENE) 04:27:42 437.465
ISS 27 May 04:25:06 04:27:33 20° 228° (SW) 04:29:59 437.550
ITUPSAT 1 27 May 04:26:54 04:30:14 19° 267° (W) 04:33:35 437.325
MOZHAYETS 4 27 May 04:38:07 04:41:49 24° 266° (W) 04:45:35
PCSat 27 May 04:44:31 04:49:59 78° 61° (ENE) 04:55:24 145.827
AO-85 27 May 04:46:45 04:50:54 61° 119° (ESE) 04:54:51 145.980
BEESAT 2 27 May 05:20:19 05:22:38 15° 110° (ESE) 05:25:00 435.950
CUBESAT XI-V 27 May 05:24:18 05:28:46 44° 261° (W) 05:33:17 437.345
KKS-1 27 May 05:27:17 05:31:29 43° 261° (W) 05:35:44 437.445
O/OREOS (USA 219) 27 May 05:30:35 05:34:10 22° 303° (WNW) 05:37:44 437.305
ITAMSAT 1 27 May 05:36:58 05:41:21 28° 294° (WNW) 05:45:44 435.822/435.867
BEESAT 3 27 May 05:37:34 05:41:28 69° 120° (ESE) 05:45:28 437.485
STARS 27 May 05:56:49 06:01:01 48° 260° (W) 06:05:15 437.465
DOVE 4 27 May 05:56:52 05:59:47 18° 94° (E) 06:02:45 437.250
CUTE-I 27 May 05:58:45 05:59:45 10° 88° (E) 06:00:45 437.470
SO-50 27 May 06:01:09 06:03:40 14° 40° (NE) 06:06:10 436.795
AO-7 27 May 06:03:41 06:11:19 42° 299° (WNW) 06:18:57 .
RS-15 27 May 06:23:20 06:32:51 25° 344° (NNW) 06:42:22 29.354- 29.394
AO-85 27 May 06:29:15 06:31:37 15° 317° (NW) 06:33:56 145.980
XW-2D 27 May 06:29:40 06:32:44 22° 95° (E) 06:35:47 145.860 - 145.880
PCSat 27 May 06:30:03 06:32:39 14° 257° (WSW) 06:35:14 145.827
XW-2B 27 May 06:37:28 06:40:45 26° 96° (E) 06:44:01 145.730 - 145.750
NUDT-PHONESAT 27 May 06:47:07 06:50:21 26° 96° (E) 06:53:33 437.300
XW-2F 27 May 06:49:28 06:53:02 35° 97° (E) 06:56:34 145.980 - 146.000
XW-2C 27 May 06:50:52 06:54:31 39° 98° (E) 06:58:08 145.795 - 145.815
BEESAT 2 27 May 06:56:10 07:00:00 46° 307° (NW) 07:03:54 435.950
KAITUO 1B 27 May 06:56:11 06:59:41 35° 97° (E) 07:03:10 145.475/437.950
STRAND 1 27 May 06:58:53 07:03:30 36° 69° (ENE) 07:08:10 437.568
HO-68 27 May 07:10:05 07:14:36 17° 90° (E) 07:19:04 435.675
BEESAT 3 27 May 07:17:22 07:19:31 14° 318° (NW) 07:21:41 437.485
LilacSat-2 27 May 07:29:30 07:33:21 61° 285° (WNW) 07:37:10 437.200
DOVE 4 27 May 07:33:47 07:37:35 35° 289° (WNW) 07:41:28 437.250
CUTE-I 27 May 07:35:06 07:40:28 89° 294° (WNW) 07:45:49 437.470
CUTE 1.7 + AOD 2 27 May 07:40:00 07:43:14 21° 93° (E) 07:46:26 437.475
SO-50 27 May 07:40:12 07:44:43 85° 240° (WSW) 07:49:15 436.795
M-CUBED/EXP-1 PRIME 27 May 07:56:49 08:00:40 35° 67° (ENE) 08:04:16 437.505
XW-2D 27 May 08:03:42 08:06:52 25° 290° (WNW) 08:10:00 145.860 - 145.880
XW-2B 27 May 08:11:51 08:14:47 21° 292° (WNW) 08:17:41 145.730 - 145.750
